Cactus Peak, Santa Catalina Island Weather observations

Data are for 10 minute period ending at time listed.
 Day   Time   Solar   Ave.   Ave.  Ave.  Vector    Max.   Stn.    Total
  of    of     Rad.   Air    Rel.  Wind   Wind     Wind   Baro.  Precip.
Year   Day            Temp.  Hum.  Speed  Dir.     Gust   Pres.         
2015   (PST)   W/m2    F      %     mph   deg.      mph    mb.     in.  
------------------------------------------------------------------------
 114   17:50   16.0    56   79.2     6    225.5     9.0    999.0   0.00  
 114   18:00   12.0    56   78.9     5    241.6     7.2    999.0   0.00  
 114   18:10   10.0    56   78.5     6    214.4    11.3    999.0   0.00  
 114   18:20    4.0    56   79.2     4    256.0     7.2    999.0   0.00  
 114   18:30    3.0    56   80.2     5    247.6     8.4    999.0   0.00  
 114   18:40    0.0    56   80.5     4    292.5     6.0    999.0   0.00  
 114   18:50    0.0    56   80.3     3    336.4     4.2    999.0   0.00  
 114   19:00    0.0    56   80.2     2    333.1     3.6    999.0   0.00  
 114   19:10    0.0    57   80.1     2    250.5     5.4    999.0   0.00  
 114   19:20    0.0    56   80.7     3    223.3     4.2    999.0   0.00  
 114   19:30    0.0    57   80.8     2    214.6     3.6    999.0   0.00  
 114   19:40    0.0    56   81.1     2    204.9     4.2    999.0   0.00  
 114   19:50    0.0    57   81.0     2    189.0     5.4    999.0   0.00  
 114   20:00    0.0    56   81.2     2    212.4     4.8    999.0   0.00  
 114   20:10    0.0    56   81.4     3    178.1     6.6    999.0   0.00  
 114   20:20    0.0    56   81.8     5    172.3     6.6    999.0   0.00  
 114   20:30    0.0    56   82.3     4    191.8     6.0    999.0   0.00  
 114   20:40    0.0    56   82.3     3    216.5     4.8    999.0   0.00  
 114   20:50    0.0    56   82.4     3    215.6     4.2    999.0   0.00  
 114   21:00    0.0    55   82.3     3    227.2     4.2    999.0   0.00  
 114   21:10    0.0    55   82.4     4    212.6     5.4    999.0   0.00  
 114   21:20    0.0    55   82.6     5    220.4     5.4    999.0   0.00  
 114   21:30    0.0    55   82.8     4    226.7     5.4    999.0   0.00  
 114   21:40    0.0    55   82.8     3    235.1     4.2    999.0   0.00  
 114   21:50    0.0    55   82.7     2    244.7     3.0    999.0   0.00  
 114   22:00    0.0    55   82.6     2    224.2     3.6    999.0   0.00  
 114   22:10    0.0    55   82.7     3    209.1     4.2    999.0   0.00  
 114   22:20    0.0    55   82.9     1    253.0     3.0    999.0   0.00  
 114   22:30    0.0    55   82.9     1    286.6     0.6    999.0   0.00  
 114   22:40    0.0    55   82.9     1    236.4     0.6    999.0   0.00  
 114   22:50    0.0    55   82.9     3    233.8     4.2    999.0   0.00  
 114   23:00    0.0    55   83.5     4    224.4     4.8    999.0   0.00  
 114   23:10    0.0    54   84.1     3    238.5     5.4    999.0   0.00  
 114   23:20    0.0    54   84.7     5    246.4     7.2    999.0   0.00  
 114   23:30    0.0    54   85.2     5    242.1     7.2    999.0   0.00  
 114   23:40    0.0    54   85.7     6    250.6     7.2    999.0   0.00  
 114   23:50    0.0    54   86.0     4    246.0     6.6    999.0   0.00  
 115    0:00    0.0    54   86.1     5    238.9     5.4    999.0   0.00  
 115    0:10    0.0    54   86.1     4    275.7     5.4    999.0   0.00  
 115    0:20    0.0    54   86.4     4    257.8     5.4    999.0   0.00  
 115    0:30    0.0    54   86.6     6    252.0    10.2    999.0   0.00  
 115    0:40    0.0    54   87.1     8    261.0    10.2    999.0   0.00  
 115    0:50    0.0    55   87.5     6    272.7     9.0    999.0   0.00  
 115    1:00    0.0    55   87.6     5    280.7     7.2    999.0   0.00  
 115    1:10    0.0    55   87.7     5    292.2     7.8    999.0   0.00  
 115    1:20    0.0    54   87.6     4    289.5     6.6    999.0   0.00  
 115    1:30    0.0    54   87.5     4    291.5     6.6    999.0   0.00  
 115    1:40    0.0    54   87.4     4    288.1     7.2    999.0   0.00  
 115    1:50    0.0    55   87.4     2    267.0     4.8    999.0   0.00  
 115    2:00    0.0    54   87.1     4    317.9     7.2    999.0   0.00  
 115    2:10    0.0    55   87.1     3    323.4     4.8    999.0   0.00  
 115    2:20    0.0    54   87.0     3    329.0     4.8    999.0   0.00  
 115    2:30    0.0    54   87.0     4      7.0     4.8    999.0   0.00  
 115    2:40    0.0    54   87.0     4    358.1     6.0    999.0   0.00  
 115    2:50    0.0    54   87.0     4    341.6     6.0    999.0   0.00  
 115    3:00    0.0    54   87.0     5    356.8     7.8    999.0   0.00  
 115    3:10    0.0    54   87.0     4    354.3     6.0    999.0   0.00  
 115    3:20    0.0    53   87.2     4    338.1     5.4    999.0   0.00  
 115    3:30    0.0    53   87.3     5    325.9     6.0    999.0   0.00  
 115    3:40    0.0    53   87.4     5    326.4     6.6    999.0   0.00  
 115    3:50    0.0    53   87.4     6    333.3     6.6    999.0   0.00  
 115    4:00    0.0    53   87.4     4    349.8     5.4    999.0   0.00  
 115    4:10    0.0    54   87.5     4    357.2     5.4    999.0   0.00  
 115    4:20    0.0    54   87.4     4      3.0     4.2    999.0   0.00  
 115    4:30    0.0    54   87.3     4      4.9     4.8    999.0   0.00  
 115    4:40    0.0    54   87.2     4    355.3     6.0    999.0   0.00  
 115    4:50    0.0    54   87.1     3    340.7     4.8    999.0   0.00  
 115    5:00    0.0    54   87.0     3    337.7     3.6    999.0   0.00  
 115    5:10    0.0    54   87.1     4    336.0     4.8    999.0   0.00  
 115    5:20    2.0    54   87.0     2    347.8     4.2    999.0   0.00  
 115    5:30    5.0    54   86.8     2    348.4     6.0    999.0   0.00  
 115    5:40   14.0    54   86.0     4      9.6     5.4    999.0   0.00  
 115    5:50   18.0    54   84.8     4     18.7     4.8    999.0   0.00  
 115    6:00   39.0    55   83.3     2    346.1     3.6    999.0   0.00  
 115    6:10   66.0    56   81.9     1    172.2     3.0    999.0   0.00  
 115    6:20   42.0    56   81.1     3    179.3     4.8    999.0   0.00  
 115    6:30   78.0    56   81.5     4    188.3     5.4    999.0   0.00  
 115    6:40  129.0    56   81.4     5    198.1     7.8    999.0   0.00  
 115    6:50   77.0    56   82.9     7    195.5     9.0    999.0   0.00  
 115    7:00  221.0    57   84.1     6    221.8     8.4    999.0   0.00  
 115    7:10  133.0    56   84.4     4    241.5     7.8    999.0   0.00  
 115    7:20  115.0    56   84.2     5    244.2     7.2    999.0   0.00  
 115    7:30  154.0    56   84.2     4    263.3     7.2    999.0   0.00  
 115    7:40  229.0    58   81.9     5    305.5     8.4    999.0   0.00  
 115    7:50  304.0    58   80.6     6    322.6    11.9    999.0   0.00  
 115    8:00  418.0    58   78.5     7    345.3    11.3    999.0   0.00  
 115    8:10  345.0    59   76.2     6    316.7    10.8    999.0   0.00  
 115    8:20  159.0    59   76.7     6    331.8    10.2    999.0   0.00  
 115    8:30  139.0    58   79.2     8    333.3    11.3    999.0   0.00  
 115    8:40  208.0    58   80.6     8    327.9    11.9    999.0   0.00  
 115    8:50  226.0    58   80.0     7    289.4    11.3    999.0   0.00  
 115    9:00  208.0    58   80.0     6    288.5    10.2    999.0   0.00  
 115    9:10  228.0    58   80.1     6    252.8    10.2    999.0   0.00  
 115    9:20  467.0    59   78.6     5    266.6     9.6    999.0   0.00  
 115    9:30  533.0    60   74.6     7    238.4    10.8    999.0   0.00  
 115    9:40  559.0    59   75.2     7    246.6    11.9    999.0   0.00  
 115    9:50  747.0    60   75.3     6    243.6    12.5    999.0   0.00  
 115   10:00  595.0    61   73.5     7    242.1    11.3    999.0   0.00  
 115   10:10  458.0    60   75.5     8    277.5    13.1    999.0   0.00  
 115   10:20  319.0    59   73.3     9    307.4    16.7    999.0   0.00  
 115   10:30  434.0    60   72.5    10    324.6    18.5    999.0   0.00  
 115   10:40  426.0    59   74.4    14    323.1    23.3    999.0   0.00  
 115   10:50  430.0    60   74.9    11    305.5    17.9    999.0   0.00  
 115   11:00  325.0    59   77.4    12    295.7    19.7    999.0   0.00  
 115   11:10  289.0    58   81.5    15    294.8    23.9    999.0   0.00  
 115   11:20  354.0    59   81.4    15    295.4    22.1    999.0   0.00  
 115   11:30  326.0    59   82.5    15    302.1    26.2    999.0   0.00  
 115   11:40  371.0    58   83.2    17    300.1    25.6    999.0   0.00  
 115   11:50  410.0    59   82.7    16    298.2    24.5    999.0   0.00  
 115   12:00  283.0    58   82.6    17    298.6    25.6    999.0   0.00  
 115   12:10  424.0    59   83.5    14    283.5    20.9    999.0   0.00  
 115   12:20  575.0    60   82.3    15    272.8    22.7    999.0   0.00  
 115   12:30  560.0    60   81.3    15    264.8    24.5    999.0   0.00  
 115   12:40  354.0    59   81.9    16    257.7    25.6    999.0   0.00  
 115   12:50  265.0    58   83.3    14    260.9    25.0    999.0   0.00  
 115   13:00  201.0    58   83.7    15    245.6    24.5    999.0   0.00  
 115   13:10  148.0    58   84.4    15    252.5    24.5    999.0   0.00  
 115   13:20  113.0    58   85.0    15    252.4    22.7    999.0   0.00  
 115   13:30  113.0    58   85.8    14    257.7    23.9    999.0   0.00  
 115   13:40   90.0    58   86.3    17    254.1    30.4    999.0   0.00  
 115   13:50  109.0    58   86.7    15    253.6    26.8    999.0   0.00  
 115   14:00   95.0    58   86.8    16    258.5    26.2    999.0   0.00  
 115   14:10  149.0    58   87.2    15    254.4    25.0    999.0   0.00  
 115   14:20  159.0    58   87.1    16    255.1    26.8    999.0   0.00  
 115   14:30  110.0    58   87.4    16    253.8    25.6    999.0   0.00  
 115   14:40   95.0    58   87.9    16    243.1    26.8    999.0   0.00  
 115   14:50   68.0    58   88.3    18    257.1    27.4    999.0   0.00  
 115   15:00   61.0    58   88.7    18    265.6    29.2    999.0   0.00  
 115   15:10   51.0    58   89.0    16    261.5    25.0    999.0   0.00  
 115   15:20   73.0    57   89.2    17    261.0    26.8    999.0   0.00  
 115   15:30   79.0    57   89.5    17    271.3    26.8    999.0   0.00  
 115   15:40   87.0    57   89.5    16    277.6    25.6    999.0   0.00  
 115   15:50   72.0    57   89.6    16    278.8    23.3    999.0   0.00  
 115   16:00   67.0    57   89.5    17    265.0    29.2    999.0   0.00  
 115   16:10   87.0    57   89.5    16    264.3    26.8    999.0   0.00  
 115   16:20   74.0    58   89.5    15    265.8    24.5    999.0   0.00  
 115   16:30   89.0    58   89.5    17    258.6    26.2    999.0   0.00  
 115   16:40  117.0    57   89.4    21    246.2    32.8    999.0   0.00  
 115   16:50  125.0    57   89.4    20    247.4    32.2    999.0   0.00  
 115   17:00  103.0    57   89.3    18    244.5    26.8    999.0   0.00  
 115   17:10   82.0    56   88.9    18    263.4    29.2    999.0   0.00  
 115   17:20   77.0    56   88.3    16    271.9    25.6    999.0   0.00  
 115   17:30   52.0    56   87.4    19    275.2    28.6    999.0   0.00  
 115   17:40   44.0    56   86.8    19    274.1    26.8    999.0   0.00  

Return to Cactus Peak graphs page.


Western Regional Climate Center,wrcc@dri.edu